Torna al catalogo

COSMOS 2251 DEB

AttivoLEO
NORAD 33917·DEBRIS·🇷🇺 Russia

Lanciato Jun 16, 1993 da Plesetsk Cosmodrome

Loading…

Prossimi Passaggi (prossime 24 ore)

TLE

AggiornatoSource: Space-Track

Epoca: Sep 14, 2026, 15:25 UTC

1 33917U 93036DW  26257.64249383  .00001060  00000-0  83179-3 0  9993
2 33917  74.1069  29.6983 0332628  65.3712 298.1669 13.70026081875118

Traccia COSMOS 2251 DEB in tempo reale con AllMySat

Download on the App Store